TimeCST,TemperatureF,Dew PointF,Humidity,Sea Level PressureIn,VisibilityMPH,Wind Direction,Wind SpeedMPH,Gust SpeedMPH,PrecipitationIn,Events,Conditions,WindDirDegrees,DateUTC
12:15 AM,48.2,37.4,66,30.03,10.0,SE,6.9,-,N/A,Rain,Light Rain,140,2013-01-01 06:15:00
12:35 AM,46.4,39.2,76,30.03,10.0,SE,4.6,-,N/A,Rain,Rain,130,2013-01-01 06:35:00
12:55 AM,48.2,39.2,71,30.02,10.0,SE,6.9,-,N/A,Rain,Light Rain,140,2013-01-01 06:55:00
1:15 AM,48.2,41.0,76,30.02,10.0,Calm,Calm,-,N/A,Rain,Light Rain,0,2013-01-01 07:15:00
1:35 AM,46.4,41.0,81,30.02,10.0,SE,5.8,-,N/A,,Drizzle,140,2013-01-01 07:35:00
1:55 AM,46.4,42.8,87,30.03,5.0,Calm,Calm,-,0.01,Rain,Light Rain,0,2013-01-01 07:55:00
2:15 AM,46.4,42.8,87,30.04,7.0,Calm,Calm,-,N/A,Rain,Light Rain,0,2013-01-01 08:15:00
2:35 AM,46.4,42.8,87,30.05,7.0,Calm,Calm,-,0.01,Rain,Rain,0,2013-01-01 08:35:00
2:55 AM,46.4,44.6,93,30.05,4.0,Calm,Calm,-,0.02,Rain,Light Rain,0,2013-01-01 08:55:00
3:15 AM,46.4,44.6,93,30.06,4.0,NNW,3.5,-,0.01,Rain,Rain,330,2013-01-01 09:15:00
3:35 AM,46.4,44.6,93,30.07,3.0,NW,3.5,-,0.03,Rain,Rain,310,2013-01-01 09:35:00
3:55 AM,46.4,44.6,93,30.06,3.0,North,3.5,-,0.06,Rain,Rain,360,2013-01-01 09:55:00
4:15 AM,46.4,42.8,87,30.07,2.5,Calm,Calm,-,0.04,Rain,Heavy Rain,0,2013-01-01 10:15:00
4:35 AM,44.6,42.8,93,30.07,1.8,Calm,Calm,-,0.08,Rain,Rain,0,2013-01-01 10:35:00
4:55 AM,44.6,42.8,93,30.06,2.5,SE,3.5,-,0.12,Rain,Rain,130,2013-01-01 10:55:00
5:15 AM,44.6,42.8,93,30.05,2.5,Calm,Calm,-,0.03,Rain,Rain,0,2013-01-01 11:15:00
5:35 AM,44.6,42.8,93,30.05,2.5,Calm,Calm,-,0.07,Rain,Rain,0,2013-01-01 11:35:00
5:55 AM,46.4,42.8,87,30.05,3.0,SSE,4.6,-,0.09,Rain,Light Rain,160,2013-01-01 11:55:00
6:15 AM,46.4,44.6,93,30.05,5.0,Calm,Calm,-,0.01,Rain,Light Rain,0,2013-01-01 12:15:00
6:35 AM,46.4,44.6,93,30.04,5.0,SE,3.5,-,0.02,Rain,Light Rain,140,2013-01-01 12:35:00
6:55 AM,46.4,44.6,93,30.05,5.0,Calm,Calm,-,0.04,Rain,Rain,0,2013-01-01 12:55:00
7:15 AM,46.4,44.6,93,30.02,4.0,Calm,Calm,-,0.02,Rain,Rain,0,2013-01-01 13:15:00
7:35 AM,46.4,44.6,93,30.05,3.0,Calm,Calm,-,0.04,Rain,Rain,0,2013-01-01 13:35:00
7:55 AM,46.4,44.6,93,30.03,5.0,Calm,Calm,-,0.05,Rain,Rain,0,2013-01-01 13:55:00
8:15 AM,46.4,44.6,93,30.05,5.0,SSE,3.5,-,0.01,Rain,Light Rain,160,2013-01-01 14:15:00
8:35 AM,46.4,44.6,93,30.04,5.0,SE,4.6,-,0.02,Rain,Rain,140,2013-01-01 14:35:00
8:55 AM,46.4,44.6,93,30.04,5.0,SSE,6.9,-,0.03,Rain,Rain,160,2013-01-01 14:55:00
9:15 AM,46.4,44.6,93,30.03,5.0,SSE,6.9,-,0.02,Rain,Rain,150,2013-01-01 15:15:00
9:35 AM,48.2,44.6,87,30.05,10.0,West,3.5,-,0.03,Rain,Light Rain,280,2013-01-01 15:35:00
9:55 AM,48.2,46.4,93,30.05,7.0,Calm,Calm,-,0.04,Rain,Rain,0,2013-01-01 15:55:00
10:15 AM,48.2,46.4,93,30.06,7.0,Calm,Calm,-,0.01,Rain,Light Rain,0,2013-01-01 16:15:00
10:35 AM,50.0,46.4,87,30.05,7.0,Calm,Calm,-,0.02,Rain,Heavy Rain,0,2013-01-01 16:35:00
10:55 AM,50.0,46.4,87,30.04,7.0,ESE,3.5,-,0.03,Rain,Rain,120,2013-01-01 16:55:00
11:15 AM,50.0,46.4,87,30.04,4.0,Calm,Calm,-,0.02,Rain,Rain,0,2013-01-01 17:15:00
11:35 AM,50.0,46.4,87,30.03,4.0,SSE,3.5,-,0.04,Rain,Rain,160,2013-01-01 17:35:00
11:55 AM,50.0,46.4,87,30.01,5.0,Calm,Calm,-,0.06,Rain,Rain,0,2013-01-01 17:55:00
12:15 PM,50.0,46.4,87,29.99,7.0,SE,4.6,-,0.01,Rain,Light Rain,140,2013-01-01 18:15:00
12:35 PM,50.0,46.4,87,29.98,10.0,SE,6.9,-,0.01,Rain,Rain,140,2013-01-01 18:35:00
12:55 PM,50.0,46.4,87,29.98,10.0,Calm,Calm,-,0.02,Rain,Light Rain,0,2013-01-01 18:55:00
1:15 PM,50.0,46.4,87,29.97,7.0,Calm,Calm,-,0.01,Rain,Light Rain,0,2013-01-01 19:15:00
1:35 PM,50.0,46.4,87,29.98,7.0,Calm,Calm,-,0.02,Rain,Rain,0,2013-01-01 19:35:00
1:55 PM,50.0,46.4,87,29.98,7.0,Calm,Calm,-,0.03,Rain,Rain,0,2013-01-01 19:55:00
2:15 PM,50.0,48.2,94,29.99,5.0,North,3.5,-,0.02,Rain,Rain,350,2013-01-01 20:15:00
2:35 PM,50.0,48.2,94,29.98,4.0,NNW,9.2,-,0.03,Rain,Rain,340,2013-01-01 20:35:00
2:55 PM,46.4,44.6,93,30.00,10.0,NNW,11.5,-,0.03,Rain,Light Rain,340,2013-01-01 20:55:00
3:15 PM,44.6,42.8,93,30.01,10.0,North,16.1,19.6,N/A,Rain,Light Rain,350,2013-01-01 21:15:00
3:35 PM,44.6,42.8,93,30.00,10.0,North,6.9,-,N/A,Rain,Rain,360,2013-01-01 21:35:00
3:55 PM,44.6,42.8,93,30.00,10.0,North,4.6,-,N/A,,Drizzle,10,2013-01-01 21:55:00
4:15 PM,44.6,41.0,87,30.00,5.0,North,5.8,-,N/A,Rain,Light Rain,10,2013-01-01 22:15:00
4:35 PM,42.8,41.0,93,30.02,7.0,NNE,6.9,-,N/A,Rain,Light Rain,30,2013-01-01 22:35:00
4:55 PM,42.8,41.0,93,30.02,4.0,NNE,5.8,-,0.01,Rain,Rain,20,2013-01-01 22:55:00
5:15 PM,42.8,39.2,87,30.04,5.0,North,8.1,-,0.01,Rain,Rain,360,2013-01-01 23:15:00
5:35 PM,42.8,39.2,87,30.03,7.0,North,9.2,-,0.02,Rain,Rain,350,2013-01-01 23:35:00
5:55 PM,41.0,39.2,93,30.04,10.0,North,6.9,-,0.02,Rain,Rain,350,2013-01-01 23:55:00
6:15 PM,41.0,37.4,87,30.03,7.0,North,4.6,-,0.01,Rain,Light Rain,350,2013-01-02 00:15:00
6:35 PM,41.0,37.4,87,30.03,10.0,North,4.6,-,0.01,,Drizzle,360,2013-01-02 00:35:00
6:55 PM,41.0,37.4,87,30.03,10.0,North,4.6,-,0.01,,Overcast,360,2013-01-02 00:55:00
7:15 PM,41.0,37.4,87,30.02,10.0,North,5.8,-,N/A,Rain,Light Rain,350,2013-01-02 01:15:00
7:35 PM,41.0,37.4,87,30.04,10.0,North,4.6,-,N/A,Rain,Rain,360,2013-01-02 01:35:00
7:55 PM,41.0,37.4,87,30.03,10.0,Calm,Calm,-,N/A,Rain,Rain,0,2013-01-02 01:55:00
8:15 PM,41.0,37.4,87,30.05,10.0,NNW,8.1,-,N/A,,Overcast,330,2013-01-02 02:15:00
8:35 PM,41.0,37.4,87,30.06,10.0,NNW,15.0,18.4,N/A,,Overcast,330,2013-01-02 02:35:00
8:55 PM,41.0,37.4,87,30.07,10.0,NNW,16.1,-,N/A,,Overcast,340,2013-01-02 02:55:00
9:15 PM,39.2,35.6,87,30.07,10.0,North,18.4,24.2,N/A,,Overcast,350,2013-01-02 03:15:00
9:35 PM,39.2,35.6,87,30.08,10.0,North,15.0,-,N/A,,Light Drizzle,350,2013-01-02 03:35:00
9:55 PM,37.4,35.6,93,30.09,7.0,North,10.4,-,N/A,,Overcast,350,2013-01-02 03:55:00
10:15 PM,37.4,35.6,93,30.09,7.0,North,13.8,-,N/A,,Overcast,350,2013-01-02 04:15:00
10:55 PM,37.4,35.6,93,30.09,4.0,North,8.1,-,N/A,,Overcast,360,2013-01-02 04:55:00
11:15 PM,37.4,35.6,93,30.11,3.0,NNW,9.2,-,N/A,,Overcast,340,2013-01-02 05:15:00
11:35 PM,37.4,35.6,93,30.10,3.0,North,10.4,-,N/A,,Overcast,350,2013-01-02 05:35:00
11:55 PM,37.4,35.6,93,30.10,3.0,North,10.4,-,N/A,,Overcast,350,2013-01-02 05:55:00